Lexington Weather

Lexington, Massachusetts, USA

73°F
9/22/2021 1:54pm 
  • Lexington Conditions: Overcast
  • Temperature: 72.7°F / 22.6°CColder 2.3°F than last hour.
  • Dew Point: 68.9°FIncreased 0.5°Fsince last hour.
  • Relative Humidity: 88%Increased 8.0% since last hour.
  • Wind: Wind from SE SE 6 mph, 10-min avg: 2 mph, gust: 8 mph
  • Barometer: 30.10 in Steady
  • Visibility: 10 miles
  • Rain Today: 0.00 in
  •   

Regional Weather Roundup
for Boston / Norton, MA

        
000
ASUS41 KBOX 171004
RWRBOX

REGIONAL WEATHER ROUNDUP
NATIONAL WEATHER SERVICE BOSTON/NORTON MA
600 AM EDT FRI SEP 17 2021

NOTE:  "FAIR" INDICATES FEW OR NO CLOUDS BELOW 12,000 FEET WITH NO 
SIGNIFICANT WEATHER AND/OR OBSTRUCTIONS TO VISIBILITY.

MAZALL-171100-
EASTERN MASSACHUSETTS
  
CITY           SKY/WX    TMP DP  RH WIND       PRES   REMARKS
BOSTON         CLOUDY    66  62  87 N9        30.32S                  
BEVERLY        CLOUDY    63  62  97 N6        30.31F                  
LAWRENCE       CLOUDY    61  59  93 N5        30.36R                  
BEDFORD        CLOUDY    63  62  97 N6        30.31S                  
BLUE HILL      NOT AVBL                                               
NORWOOD        CLOUDY    66  63  90 NE5       30.31R                  
MARSHFIELD     CLOUDY    66  64  94 NE6       30.30S                  
PLYMOUTH       CLOUDY    66  66 100 NE6       30.30R FOG              
TAUNTON        CLOUDY    66  64  93 CALM      30.29R                  
NEW BEDFORD    CLOUDY    67  66  97 NE5       30.28R                  
$$

MAZALL-171100-
CAPE COD AND THE ISLANDS
  
CITY           SKY/WX    TMP DP  RH WIND       PRES   REMARKS
FALMOUTH       CLOUDY    66  66 100 NE9       30.29R                  
HYANNIS        CLOUDY    68  67  96 NE5       30.28R                  
CHATHAM        CLOUDY    67  66  97 NE7       30.30R                  
PROVINCETOWN   CLOUDY    66  65  96 E7        30.32R                  
NANTUCKET      CLOUDY    70  67  90 NE10      30.27R                  
MARTHAS VNYRD  CLOUDY    69  69 100 NE9       30.27R                  
$$
 
MAZALL-171100-
CENTRAL AND WESTERN MASSACHUSETTS
  
CITY           SKY/WX    TMP DP  RH WIND       PRES   REMARKS
WORCESTER      FOG       60  58  92 NE7       30.33S VSB 3/4          
FITCHBURG      CLOUDY    61  58  90 N5        30.35R                  
ORANGE         CLOUDY    62  57  83 N5        30.34R                  
SPRINGFIELD    CLOUDY    64  60  86 E5        30.30R                  
WESTFIELD      CLOUDY    65  63  93 N6        30.30S                  
NORTH ADAMS    CLOUDY    66  60  81 E7        30.31R                  
PITTSFIELD     CLOUDY    63  60  90 NE6       30.30R                  
$$
 
RIZALL-171100-
RHODE ISLAND
  
CITY           SKY/WX    TMP DP  RH WIND       PRES   REMARKS
PROVIDENCE     CLOUDY    66  64  93 N9        30.30R                  
NEWPORT        CLOUDY    66  65  96 NE6       30.28R                  
BLOCK ISLAND   CLOUDY    67  66  97 NE12G18   30.27S                  
SMITHFIELD     CLOUDY    63  62  97 NE6       30.32R                  
WESTERLY       CLOUDY    63  63 100 N7        30.27R FOG              
$$
 
CTZALL-171100-
CONNECTICUT
  
CITY           SKY/WX    TMP DP  RH WIND       PRES   REMARKS
BRADLEY INTL   CLOUDY    65  61  87 N7        30.30R                  
HARTFORD       CLOUDY    67  61  81 E3        30.29R                  
BRIDGEPORT     CLOUDY    67  64  90 NE8       30.26R FOG              
DANBURY        CLOUDY    67  64  90 NE6       30.28R FOG              
GROTON         CLOUDY    67  64  90 NE12      30.26S                  
NEW HAVEN      CLOUDY    68  66  93 N6        30.27R FOG              
CHESTER        CLOUDY    66  64  94 NE6       30.28S                  
MERIDEN        CLOUDY    66  61  84 VRB5      30.28R                  
WILLIMANTIC    CLOUDY    64  61  90 NE5       30.30R                  
OXFORD         CLOUDY    63  63 100 NE14      30.29R FOG              
$$

MEZ002-015-021-024-NHZ003-005-008-011-012-014-VTZ005-008-171100-
NORTHERN NEW ENGLAND
  
CITY           SKY/WX    TMP DP  RH WIND       PRES   REMARKS
PORTLAND ME    PTCLDY    54  52  93 N5        30.38R                  
BANGOR ME      PTCLDY    47  47 100 CALM      30.39R                  
CONCORD NH     CLOUDY    56  55  97 CALM      30.36R                  
MANCHESTER NH  CLOUDY    61  57  87 N5        30.34R                  
NASHUA NH      CLOUDY    60  60 100 NW5       30.35S                  
PORTSMOUTH NH  CLOUDY    60  56  87 N6        30.37R                  
JAFFREY NH     CLOUDY    58  58 100 CALM      30.36R                  
KEENE NH       CLOUDY    58  57  97 NE3       30.35R                  
BURLINGTON VT  CLOUDY    63  59  87 SE3       30.29R                  
MT. WASHINGTON FOG       46  46 100 W31         N/A  VSB 1/16         
$$

NYZ052-076-171100-
EASTERN NEW YORK
  
CITY           SKY/WX    TMP DP  RH WIND       PRES   REMARKS
ALBANY         CLOUDY    63  63 100 CALM      30.29R                  
NEW YORK CITY  CLOUDY    71  66  84 NE16      30.23R                  
$$
 
ANZALL-171100-
MARINE OBSERVATIONS
  
STATION/POSITION TIME  TEMP    WIND        PRES    VSBY  WAVE
                       AIR SEA DIR/SP/G                  HT/PER
                 (UTC) (F)     (DEG/KT/KT) (MB)    (MI)  (FT/S)
BOSTON BUOY      0940      67   30/  8/ 10 1026.6S
BUZZARDS BAY     0900           50/ 13/ 14 1025.7S
NANTUCKET SOUND  0940   70 72   60/ 12/ 14 1025.1R
MASS BAY-STELLWA 0904   65      40/  6/  8 1026.3S  1 7/8  2/ 4
ISLE OF SHOALS   0900   62      20/ 11/ 11 1026.8R
S OF BLOCK IS    0926      69                N/A           4/ 6
$$

......................KEY.........................
  SKY/WX - SKY CONDITION/PRESENT WEATHER
  TMP    - TEMPERATURE IN FAHRENHEIT
  DWPT   - DEWPOINT IN FAHRENHEIT
  RH     - RELATIVE HUMIDITY IN PERCENT
  WIND   - DIRECTION AND SPEED IN MPH
  PRES   - MEAN SEA LEVEL PRESSURE IN INCHES OF HG
  WCI    - WIND CHILL INDEX
  VSB    - VISIBILITY IN MILES
  HX     - HEAT INDEX
  TC     - TEMPERATURE IN CELSIUS
  VRB    - VARIABLE WIND DIRECTION
  N/A    - NOT AVAILABLE
  
      

Other recent Regional Weather Roundups

Wed Sep 22, 1:04pm

Wed Sep 22, 12:05pm

Wed Sep 22, 11:04am

Wed Sep 22, 10:04am

Wed Sep 22, 9:04am

Wed Sep 22, 8:04am

Wed Sep 22, 7:04am

Wed Sep 22, 6:04am

Wed Sep 22, 5:04am

Wed Sep 22, 4:04am

Wed Sep 22, 3:04am

Wed Sep 22, 2:04am

Wed Sep 22, 1:04am

Wed Sep 22, 12:04am

Tue Sep 21, 11:04pm

Tue Sep 21, 10:04pm

Tue Sep 21, 9:04pm

Tue Sep 21, 8:04pm

Tue Sep 21, 7:04pm

Tue Sep 21, 6:04pm

Tue Sep 21, 5:04pm

Tue Sep 21, 4:04pm

Tue Sep 21, 3:04pm

Tue Sep 21, 2:04pm

Tue Sep 21, 1:04pm

Tue Sep 21, 12:04pm

Tue Sep 21, 11:04am

Tue Sep 21, 10:04am

Tue Sep 21, 9:04am

Tue Sep 21, 8:04am

Tue Sep 21, 7:04am

Tue Sep 21, 6:04am

Tue Sep 21, 5:04am

Tue Sep 21, 4:04am

Tue Sep 21, 3:04am

Tue Sep 21, 2:04am

Tue Sep 21, 1:04am

Tue Sep 21, 12:04am

Mon Sep 20, 11:04pm

Mon Sep 20, 10:04pm

Mon Sep 20, 9:04pm

Mon Sep 20, 8:04pm

Mon Sep 20, 7:04pm

Mon Sep 20, 6:04pm

Mon Sep 20, 5:04pm

Mon Sep 20, 4:04pm

Mon Sep 20, 3:04pm

Mon Sep 20, 2:04pm

Mon Sep 20, 1:04pm

Mon Sep 20, 12:04pm

Mon Sep 20, 11:04am

Mon Sep 20, 10:04am

Mon Sep 20, 9:04am

Mon Sep 20, 7:04am

Mon Sep 20, 6:04am

Mon Sep 20, 5:04am

Mon Sep 20, 4:04am

Mon Sep 20, 3:04am

Mon Sep 20, 2:04am

Mon Sep 20, 1:04am

Mon Sep 20, 12:04am

Sun Sep 19, 11:04pm

Sun Sep 19, 10:04pm

Sun Sep 19, 9:04pm

Sun Sep 19, 8:04pm

Sun Sep 19, 7:04pm

Sun Sep 19, 6:04pm

Sun Sep 19, 5:04pm

Sun Sep 19, 4:04pm

Sun Sep 19, 3:04pm

Sun Sep 19, 2:05pm

Sun Sep 19, 1:04pm

Sun Sep 19, 12:04pm

Sun Sep 19, 11:04am

Sun Sep 19, 10:05am

Sun Sep 19, 9:04am

Sun Sep 19, 8:04am

Sun Sep 19, 7:04am

Sun Sep 19, 6:04am

Sun Sep 19, 5:04am

Sun Sep 19, 4:04am

Sun Sep 19, 3:04am

Sun Sep 19, 2:04am

Sun Sep 19, 1:04am

Sun Sep 19, 12:04am

Sat Sep 18, 11:05pm

Sat Sep 18, 10:04pm

Sat Sep 18, 9:04pm

Sat Sep 18, 8:04pm

Sat Sep 18, 7:04pm

Sat Sep 18, 6:04pm

Sat Sep 18, 5:04pm

Sat Sep 18, 4:04pm

Sat Sep 18, 3:04pm

Sat Sep 18, 2:04pm

Sat Sep 18, 1:04pm

Sat Sep 18, 12:04pm

Sat Sep 18, 11:04am

Sat Sep 18, 10:04am

Sat Sep 18, 9:04am

Sat Sep 18, 8:04am

Sat Sep 18, 7:04am

Sat Sep 18, 6:04am

Sat Sep 18, 5:04am

Sat Sep 18, 4:04am

Sat Sep 18, 3:04am

Sat Sep 18, 2:04am

Sat Sep 18, 1:04am

Sat Sep 18, 12:04am

Fri Sep 17, 11:04pm

Fri Sep 17, 10:04pm

Fri Sep 17, 9:04pm

Fri Sep 17, 8:04pm

Fri Sep 17, 7:04pm

Fri Sep 17, 6:04pm

Fri Sep 17, 5:04pm

Fri Sep 17, 4:04pm

Fri Sep 17, 3:04pm

Fri Sep 17, 2:04pm

Fri Sep 17, 1:04pm

Fri Sep 17, 12:05pm

Fri Sep 17, 11:04am

Fri Sep 17, 10:04am

Fri Sep 17, 9:04am

Fri Sep 17, 8:04am

Fri Sep 17, 7:04am

Fri Sep 17, 5:04am

Fri Sep 17, 4:04am

Fri Sep 17, 3:04am

Fri Sep 17, 2:04am

Fri Sep 17, 1:04am

Fri Sep 17, 12:04am

Thu Sep 16, 11:04pm

Thu Sep 16, 10:04pm

Thu Sep 16, 9:04pm

Thu Sep 16, 8:04pm

Thu Sep 16, 7:04pm

Thu Sep 16, 6:04pm

Thu Sep 16, 5:04pm

Thu Sep 16, 4:04pm

Thu Sep 16, 3:04pm

Thu Sep 16, 2:04pm

Thu Sep 16, 1:05pm

Thu Sep 16, 12:04pm

Thu Sep 16, 11:05am

Thu Sep 16, 10:05am

Thu Sep 16, 9:04am

Thu Sep 16, 8:04am

Thu Sep 16, 7:04am

Thu Sep 16, 6:04am

Thu Sep 16, 5:04am

Thu Sep 16, 4:04am

Thu Sep 16, 3:04am

Thu Sep 16, 2:04am

Thu Sep 16, 1:04am

Thu Sep 16, 12:04am

Wed Sep 15, 11:04pm

Wed Sep 15, 10:04pm

Wed Sep 15, 9:04pm

Wed Sep 15, 8:04pm

Wed Sep 15, 7:04pm

Wed Sep 15, 6:04pm

Wed Sep 15, 5:05pm

Wed Sep 15, 4:04pm

Wed Sep 15, 3:04pm

Wed Sep 15, 2:04pm

Meta data:

ID: 49591429-43db-4a07-aef4-62e021dae734
Link: https://api.weather.gov/products/49591429-43db-4a07-aef4-62e021dae734